Regional Weather Roundup
Issued by NWS

Home | Current Version | Previous Version | Graphics & Text | Print | Product List | Glossary On
Versions: 1 2 3 4 5 6 7 8 9 10 11 12 13 14 15 16 17 18 19 20 21 22 23 24 25 26 27 28 29 30 31 32 33 34 35 36 37 38 39 40 41 42 43 44 45 46 47 48 49 50
000
ASUS43 KFSD 101410
RWRSD

WEATHER ROUNDUP FOR SOUTH DAKOTA
NATIONAL WEATHER SERVICE SIOUX FALLS SD
800 AM CST SUN DEC 10 2017

NOTE: "FAIR" INDICATES FEW OR NO CLOUDS BELOW 12,000 FEET WITH NO
SIGNIFICANT WEATHER AND/OR OBSTRUCTIONS TO VISIBILITY.


SDZ001>005-009-010-012>017-101500-
NORTHWEST AND NORTH CENTRAL SOUTH DAKOTA

CITY           SKY/WX    TMP DP  RH WIND       PRES   REMARKS
BUFFALO          N/A     33  16  49 W12       30.12R WCI  24
FAITH            N/A     37  16  42 W20       30.12F
MOBRIDGE       CLOUDY    33  21  61 N5        30.06R WCI  29
$$

SDZ012>016-024>037-041>051-057-063-072>074-101500-
SOUTHWEST AND SOUTH CENTRAL SOUTH DAKOTA

CITY           SKY/WX    TMP DP  RH WIND       PRES   REMARKS
RAPID CTY ARPT CLOUDY    41   6  23 NW13      30.22R
PIERRE         CLEAR     37  21  52 W14       30.10F
CUSTER         CLEAR     43  -4  14 W10       30.26S
ELLSWORTH AFB  CLOUDY    46   6  19 NW17      30.20S
PHILIP         CLEAR     44  14  29 NW15      30.17R
PINE RIDGE     CLOUDY    33  15  47 SW6       30.27S WCI  28
SPEARFISH      FAIR      43   9  24 W14       30.26S
WINNER         FAIR      41  17  38 W12       30.13S
$$

SDZ004>011-016>023-039-040-101500-
NORTHEAST SOUTH DAKOTA

CITY           SKY/WX    TMP DP  RH WIND       PRES   REMARKS
ABERDEEN       CLOUDY    29  24  82 W10       30.04S WCI  20
WATERTOWN      CLOUDY    27  24  89 W7        29.99S WCI  19
BROOKINGS      CLEAR     26  23  88 NW8       30.01R WCI  18
SISSETON         N/A     28  24  85 N8        29.99S WCI  20
$$

SDZ017-020-022-023-036>040-048>070-101500-
SOUTHEAST SOUTH DAKOTA

CITY           SKY/WX    TMP DP  RH WIND       PRES   REMARKS
SIOUX FALLS    CLOUDY    28  24  85 NW7       30.04R WCI  21
HURON          CLOUDY    23  21  92 W7        30.07R WCI  15
CHAMBERLAIN    CLEAR     40  22  50 NW12      30.09S
MITCHELL       CLOUDY    33  25  72 NW10      30.08R WCI  25
YANKTON        CLEAR     37  24  59 W15       30.08R
$$

ABBREVIATIONS USED IN REMARKS
   TC - TEMPERATURE IN CELSIUS
  WCI - WIND CHILL INDEX
   HX - HEAT INDEX
  VSB - VISIBILITY





USA.gov is the U.S. government's official web portal to all federal, state and local government web resources and services.